Yaogan 39 05 zu 02 xing

operational
NORAD ID: 58558 Int'l Des: 2023-194 Owner: ZZB Country: CN Constellation: yaogan
LEOCIRCULAR

关于 Yaogan 39 05 zu 02 xing

正在加载描述...

实时位置

正在加载3D地球...

即将过境

高度历史

Altitude vs Time

uPlot chart will show altitude changes over time

两行轨道根数

1 58558U 23194B 26062.23090966 .00008141 00000-0 40902-3 0 9993
2 58558 34.9936 21.6261 0008651 89.9979 270.1725 15.16530532123995
Epoch: Mar 3, 2026 • Age: 9 hours

当前状态

高度 512.5 km
速度 7.61 km/s
星下点 10.03°N, 116.29°W
发射日期 Dec 10, 2023
运行时间 2.2 years
类型 military

技术详情

分类 Payload
质量 300.00 kg
干质量 300.00 kg
总质量 300.00 kg
长度 2.50 m
直径 2.50 m
跨度 5.00 m
形状 Box + 2 Pan
制造商 SAST
阶段状态 In Orbit
所有者/国家 ZZB/CN

大型星座

Loading constellations...